Terminal Aerodrome Forecast
Issued by NWS

Home | Current Version | Previous Version | Graphics & Text | Print | Product List | Glossary On
Versions: 1 2 3 4 5 6 7 8 9 10 11 12 13 14 15 16 17 18
000
FTUS43 KICT 220520
TAFRSL
TAF
KRSL 220520Z 2206/2306 21011KT P6SM VCTS SCT060CB SCT100
     FM220730 01015G22KT P6SM VCSH SCT015 SCT060 SCT100
     FM221400 03014G20KT P6SM SKC=

USA.gov is the U.S. government's official web portal to all federal, state and local government web resources and services.